Regional Weather Roundup
Issued by NWS Newport/Morehead, NC

Current Version | Previous Version | Graphics & Text | Print | Product List | Glossary On
Versions: 1 2 3 4 5 6 7 8 9 10 11 12 13 14 15 16 17 18 19 20 21 22 23 24 25 26 27 28 29 30 31 32 33 34 35 36 37 38 39 40 41 42 43 44 45 46 47 48 49 50
000 ASUS42 KMHX 010313 RWRMHX WEATHER ROUNDUP FOR EASTERN NORTH CAROLINA NATIONAL WEATHER SERVICE NEWPORT/MOREHEAD CITY NC 1100 PM EDT SAT APR 30 2016 NOTE: "FAIR" INDICATES FEW OR NO CLOUDS BELOW 12,000 FEET WITH NO SIGNIFICANT WEATHER AND/OR OBSTRUCTIONS TO VISIBILITY NCZ015>017-031-032-045>047-102-103-010400- NORTH COAST CITY SKY/WX TMP DP RH WIND PRES REMARKS EDENTON CLOUDY 57 55 94 E5 30.21R ELIZABETH CITY CLOUDY 55 51 86 NE10 30.20S KITTY HAWK PTCLDY 54 52 94 NE6 30.20R MANTEO NOT AVBL $$ NCZ045>047-081-094-103-104-010400- CENTRAL COAST CITY SKY/WX TMP DP RH WIND PRES REMARKS FRISCO CLEAR 57 55 93 NE5 30.18F SWANQUARTER NOT AVBL $$ NCZ095-097-098-100-101-010400- SOUTHERN COAST CITY SKY/WX TMP DP RH WIND PRES REMARKS BEAUFORT CLOUDY 61 58 90 NE6 30.17S CEDAR ISLAND NOT AVBL JACKSONVILLE CLOUDY 62 56 80 E10 30.15S PINEY ISLAND NOT AVBL WILMINGTON CLOUDY 63 58 83 E12G17 30.14S $$ NCZ011>013-027>030-043-044-078>080-089-090>093-098-010400- COASTAL PLAIN CITY SKY/WX TMP DP RH WIND PRES REMARKS AHOSKIE CLOUDY 56 51 82 E5 30.21R CLINTON MOCLDY 63 59 87 E3 30.15F ELIZABETHTOWN CLOUDY 64 58 83 E5 30.14S GOLDSBORO CLOUDY 63 63 100 E8 30.14S GREENVILLE CLOUDY 59 54 82 E3 30.19S HAVELOCK CLOUDY 61 57 87 E9 30.18S KENANSVILLE CLOUDY 62 56 82 CALM 30.16F KINSTON CLOUDY 63 57 81 E6 30.17S NEW BERN CLOUDY 61 56 83 E8 30.19R RICHLANDS CLOUDY 61 57 87 E6 30.16F ROCKY MOUNT CLOUDY 60 55 83 E3 30.17S WASHINGTON CLOUDY 57 53 85 E6 30.19S WHITEVILLE CLOUDY 63 59 85 E8 30.12S $$ AMZ130-135-150-152-154-156-158-170-250-252-270-ANZ085-086-088-633-658-670-010400- MARINE OBSERVATIONS STATION/POSITION TIME TEMP WIND PRES WAVE SWELL AIR SEA DIR/SP/G HT/PER HT/PER (UTC) (F) (DEG/KT/KT) (MB) (FT/S) (FT/S) CHESAPEAKE LIGHT 0300 53 70/ 14/ 15 1023.8 64 E VA BEACH 0250 54 53 40/ 8/ 10 1022.6 6/10 7/10 DUCK 0200 54 67 50/ 17/ 18 1022.2 2 E DUCK 0211 58 N/A 5/ 9 2/11 OREGON INLET 0200 55 62 40/ 12/ 15 1022.5 13E OREGON INLT 0200 56 N/A 5/10 5/10 HATTERAS CG 0200 58 69 60/ 10/ 15 1021.9 DIAMOND BUOY 0250 65 74 40/ 14/ 16 1021.8 5/ 8 5/ 8 CAPE LOOKOUT 0300 62 60/ 15/ 16 1021.4 BEAUFORT LAB 0200 62 67 70/ 6/ 9 1020.7 30 SE NEW RVR IN 0225 68 N/A 4/ 5 27 SE WRIGHTSVLE 0208 67 70 80/ 16/ 19 1020.2 5 SE WRIGHTSVLE 0208 65 68 90/ 16/ 21 1021.0 225 S CAPE HAT 0250 71 70/ 16/ 17 1020.5 5/ 9 5/ 9 41 SE CHARLESTON 0250 75 73 100/ 17/ 21 1017.9 4/11 2/11 $$

USA.gov is the U.S. government's official web portal to all federal, state and local government web resources and services.